Parkersburg, WV

8:52 PM EST on February 25, 2017 (GMT -0500)
Wood County Wilson

Weather History for KPKB - October, 2012

Change the Weather History Date:

Saturday, October 27, 2012

  Actual Average Record
Temperature  
Mean Temperature 51 °F 52 °F  
Max Temperature 55 °F 63 °F 84 °F (1984)
Min Temperature 47 °F 41 °F 21 °F (1962)
Degree Days  
Heating Degree Days 14 13  
Month to date heating degree days 241 261  
Since 1 July heating degree days 342 337  
Cooling Degree Days 0 0  
Month to date cooling degree days 20 13  
Year to date cooling degree days 1180 949  
Moisture  
Dew Point 46 °F    
Average Humidity 85    
Maximum Humidity 93    
Minimum Humidity 77    
Precipitation  
Precipitation 0.21 in 0.10 in 0.81 in (2011)
Month to date precipitation 0.67 2.46  
Year to date precipitation 33.47 34.33  
Sea Level Pressure  
Sea Level Pressure 30.03 in    
Wind  
Wind Speed 6 mph (NNW)    
Max Wind Speed 12 mph    
Max Gust Speed 18 mph    
Visibility 8 miles    
Events Rain    
T = Trace of Precipitation, MM = Missing Value Source: NWS Daily Summary

Daily Weather History Graph

Daily Weather History Graph

Search for Another Location

Airport or City:

Trip Planner

Search our weather history database for the weather conditions in past years. The results will help you decide how hot, cold, wet, or windy it might be!

Date:

Astronomy

Oct. 27, 2012 Rise Set
Actual Time 7:48 AM EDT 6:29 PM EDT
Civil Twilight 7:21 AM EDT 6:57 PM EDT
Nautical Twilight 6:49 AM EDT 7:28 PM EDT
Astronomical Twilight 6:18 AM EDT 7:59 PM EDT
Moon 5:14 PM EDT (10/27) 5:42 AM EDT (10/27)
Length of Visible Light 11h 36m
Length of Day
10h 41m
Waxing Gibbous, 96% of the Moon is Illuminated
Oct 27
Waxing Gibbous
Oct 29
Full
Nov 6
Last Quarter
Nov 13
New
Nov 20
First Quarter

Hourly Weather History & Observations

Time (EDT) Temp. Windchill Dew Point Humidity Pressure Visibility Wind Dir Wind Speed Gust Speed Precip Events Conditions
1:42 AM 55.4 °F - 48.2 °F 77% 30.01 in 10.0 mi NNW 4.6 mph - N/A   Overcast
1:53 AM 55.0 °F - 48.9 °F 80% 29.99 in 10.0 mi North 6.9 mph - N/A   Overcast
2:53 AM 54.0 °F - 48.0 °F 80% 29.99 in 10.0 mi North 5.8 mph - N/A   Overcast
3:53 AM 53.1 °F - 48.0 °F 83% 29.99 in 10.0 mi North 8.1 mph - N/A   Overcast
4:53 AM 53.1 °F - 48.0 °F 83% 29.98 in 10.0 mi NNW 5.8 mph - N/A   Overcast
5:53 AM 53.1 °F - 48.0 °F 83% 29.98 in 10.0 mi NNE 6.9 mph - N/A   Overcast
6:12 AM 51.8 °F - 48.2 °F 88% 30.00 in 10.0 mi North 6.9 mph - N/A   Overcast
6:53 AM 52.0 °F - 46.9 °F 83% 29.99 in 10.0 mi North 5.8 mph - N/A   Overcast
7:53 AM 51.1 °F - 46.9 °F 86% 30.00 in 10.0 mi NNW 4.6 mph - N/A   Overcast
8:53 AM 51.1 °F - 46.9 °F 86% 30.01 in 8.0 mi NW 5.8 mph - 0.00 in Rain Light Rain
9:53 AM 50.0 °F - 48.0 °F 93% 30.04 in 3.0 mi NW 3.5 mph - 0.04 in Rain Light Rain
11:53 AM 48.9 °F - 46.0 °F 90% 30.05 in 4.0 mi NW 8.1 mph 17.3 mph N/A   Overcast
12:48 PM 48.2 °F - 44.6 °F 87% 30.05 in 10.0 mi NNW 5.8 mph - 0.00 in Rain Light Rain
12:53 PM 48.0 °F - 45.0 °F 89% 30.05 in 5.0 mi NNW 6.9 mph 16.1 mph 0.01 in Rain Light Rain
1:53 PM 48.0 °F - 44.1 °F 86% 30.04 in 10.0 mi NNW 8.1 mph - 0.01 in   Overcast
2:53 PM 48.0 °F - 45.0 °F 89% 30.04 in 4.0 mi NW 5.8 mph - 0.01 in Rain Light Rain
2:57 PM 46.4 °F 43.5 °F 44.6 °F 93% 30.03 in 2.5 mi NNW 5.8 mph - 0.01 in Rain Rain
3:22 PM 46.4 °F 43.5 °F 44.6 °F 93% 30.02 in 3.0 mi NNW 5.8 mph - 0.06 in Rain Light Rain
3:33 PM 48.2 °F - 44.6 °F 87% 30.02 in 3.0 mi NNW 3.5 mph - 0.07 in Rain Light Rain
3:38 PM 48.2 °F - 46.4 °F 93% 30.03 in 2.5 mi NNW 4.6 mph - 0.08 in Rain Rain
3:50 PM 48.2 °F - 44.6 °F 87% 30.02 in 3.0 mi NNW 6.9 mph - 0.09 in Rain Light Rain
3:53 PM 48.0 °F - 46.0 °F 93% 30.03 in 4.0 mi Variable 5.8 mph - 0.09 in Rain Light Rain
4:17 PM 48.2 °F - 46.4 °F 93% 30.03 in 5.0 mi NW 4.6 mph - 0.02 in Rain Light Rain
4:24 PM 48.2 °F - 46.4 °F 93% 30.03 in 5.0 mi NNW 3.5 mph - 0.03 in Rain Light Rain
4:53 PM 48.0 °F - 46.0 °F 93% 30.04 in 10.0 mi NNW 4.6 mph - 0.03 in Rain Light Rain
5:04 PM 48.2 °F - 46.4 °F 93% 30.04 in 9.0 mi NNW 5.8 mph - 0.00 in Rain Light Rain
5:40 PM 48.2 °F - 46.4 °F 93% 30.03 in 10.0 mi NNW 4.6 mph - 0.00 in   Overcast
5:50 PM 48.2 °F - 46.4 °F 93% 30.04 in 9.0 mi North 3.5 mph - 0.00 in   Overcast
5:53 PM 48.0 °F - 46.0 °F 93% 30.04 in 9.0 mi NNW 3.5 mph - 0.00 in   Overcast
6:12 PM 48.2 °F - 46.4 °F 93% 30.04 in 10.0 mi NNW 4.6 mph - N/A   Overcast
6:27 PM 48.2 °F - 46.4 °F 93% 30.04 in 10.0 mi North 4.6 mph - N/A   Overcast
6:53 PM 48.9 °F - 46.0 °F 90% 30.05 in 10.0 mi NNW 5.8 mph - N/A   Overcast
7:23 PM 48.2 °F - 44.6 °F 87% 30.04 in 10.0 mi North 6.9 mph - N/A   Overcast
7:53 PM 48.9 °F - 45.0 °F 86% 30.05 in 10.0 mi NNW 5.8 mph - N/A   Overcast
8:53 PM 48.0 °F - 45.0 °F 89% 30.06 in 10.0 mi NNW 4.6 mph - 0.00 in   Overcast
9:53 PM 48.9 °F - 44.1 °F 83% 30.06 in 10.0 mi North 4.6 mph - N/A   Overcast
10:53 PM 48.9 °F - 44.1 °F 83% 30.06 in 10.0 mi North 8.1 mph - N/A   Overcast
11:07 PM 48.2 °F - 44.6 °F 87% 30.05 in 10.0 mi NNW 8.1 mph - N/A   Overcast
11:15 PM 48.2 °F - 44.6 °F 87% 30.05 in 10.0 mi NNW 9.2 mph - N/A   Overcast